Location: Bucharest
(44.4268°N, 26.1025°E)
Time: 00:10:18
(UTC+03:00)

O/OREOS (USA 219) - Pass Details

Date: 04 July 2022
Orbit: 621 x 646 km, 72.0° (Epoch: 22 May)

Event Time Altitude Azimuth Distance (km) Brightness Sun altitude
Rises 23:54:53 0° 347° (NNW) 2,965 ? -19.9°
Reaches altitude 10° 23:57:42 10° 4° (N) 2,053 ? -20.1°
Maximum altitude 00:01:08 20° 53° (NE) 1,480 ? -20.3°
Enters shadow 00:03:34 14° 91° (E) 1,784 ? -20.4°
